sat.trackr.live / text

‹ back to catalog

JILIN GAOFEN OBJECT E

NORAD 68695 · 2026-080E

PAYLOAD ACTIVE UNKNOWN

§ Identity

Operator
Country
PRC
Launch date
2026-04-14
Launch site
JSC
Launch vehicle
Mass (kg)
RCS (m²)

External: N2YO · Heavens-Above · Gunter

§ Orbital elements

Epoch: 2026-09-20T03:30:52.983648Z

Period
95.47 min
Inclination
97.6571°
Eccentricity
0.0015337
Mean motion
15.08283459 rev/d
Perigee alt
530.8 km
Apogee alt
552.1 km
Semi-major
6,919.6 km
B*
2.1913e-4
RAAN
338.5931°
Arg perigee
99.3315°
Mean anomaly
260.9648°
Rev number
2,394

§ Raw data

JILIN GAOFEN OBJECT E1 68695U 26080E   26263.14644657  .00003341  00000+0  21913-3 0  99952 68695  97.6571 338.5931 0015337  99.3315 260.9648 15.08283459 23940

JSON: /api/v1/satellites/68695 · /tle

For live sub-satellite position, see the globe view (requires WebGL).

§ Visibility from observer

Set your observer location to see the next 7 days of passes ≥ 10°. The values pass through the URL so the page stays shareable.

No JS? Fill the form by hand. The geolocation button needs JavaScript.